Temperature
21 21 21 21 21 20 19 19 19 18 17 17 17 17 17 17 17 17 17 17 17 17 17 17 17 17 17 17 17 17 17 17 17 17 17 17 17 17 17 17 17 17 17
22 22 22 22 21 21 20 20 19 19 18 18 18 17 17 17 17 17 17 17 17 17 17 17 17 17 17 17 17 17 17 17 17 17 17 17 17 17 17 17 17 17 17
22 22 22 22 22 21 21 21 20 19 19 18 18 17 17 17 17 17 17 17 17 17 17 17 17 17 17 17 17 17 17 17 17 17 17 17 17 17 17 17 17 17 17
22 22 22 22 22 21 21 21 20 20 19 18 18 17 17 17 17 16 16 16 16 16 16 17 17 17 17 17 17 17 17 17 17 17 16 17 16 16 17 17 17 17 17
22 21 21 21 21 21 21 21 20 20 19 18 18 18 17 17 16 16 16 16 16 16 16 16 16 16 16 17 17 17 16 17 17 16 16 17 17 16 16 17 17 17 17
21 21 21 20 20 20 20 20 20 20 19 19 18 18 17 17 16 16 16 16 15 16 16 16 16 16 16 16 16 16 16 16 17 16 16 16 17 17 17 17 17 17 17
21 20 20 19 19 19 19 19 19 19 19 19 18 18 17 17 16 16 16 15 15 15 16 16 16 16 16 16 16 16 16 16 17 16 16 16 16 17 17 17 17 17 17
20 19 19 19 19 18 18 18 18 18 18 18 18 17 17 17 16 16 15 15 15 15 15 15 16 16 16 16 16 16 16 16 16 16 16 16 16 16 17 17 17 17 17
19 19 18 18 18 17 17 17 17 16 16 17 17 17 17 16 16 16 15 15 14 14 15 15 15 15 16 16 16 16 16 16 16 16 16 16 16 16 17 17 17 17 17
18 18 18 17 17 17 16 16 16 15 15 15 15 16 16 16 16 15 15 15 14 14 14 14 14 15 15 15 16 16 16 16 16 16 16 16 16 16 16 17 17 17 17
17 17 17 17 16 16 16 16 15 15 15 15 15 15 15 15 15 15 15 14 14 14 14 14 14 14 14 15 15 15 15 15 15 16 16 16 16 16 16 16 16 16 17
16 16 16 16 16 16 16 15 15 15 15 15 14 15 15 14 14 14 14 14 14 14 14 14 13 13 14 14 14 15 15 16 15 15 15 15 15 15 16 16 16 16 16
15 15 15 15 15 15 15 14 14 14 14 14 14 14 14 14 14 14 14 14 14 14 14 13 13 14 14 14 14 15 15 15 16 15 15 15 15 15 15 15 15 16 16
14 14 14 14 14 14 14 14 14 14 14 14 14 14 14 14 14 14 14 14 14 13 13 13 13 13 13 13 14 14 15 15 15 15 15 15 15 15 15 15 15 15 16
13 13 13 14 14 14 14 14 14 14 14 14 14 14 14 14 14 14 13 13 13 13 13 13 13 13 13 13 13 13 14 14 14 14 14 15 15 15 15 15 15 15 15
12 12 13 13 13 13 13 13 13 13 13 14 14 13 13 14 14 14 13 13 13 13 13 13 13 12 12 12 12 13 13 13 13 13 14 14 14 14 14 14 15 15 15
10 11 11 12 12 13 13 13 13 13 13 13 13 13 13 13 13 13 13 13 13 12 12 12 12 12 12 12 12 12 13 13 13 13 13 14 14 14 14 14 14 14 15
8 9 9 10 11 11 12 12 12 12 12 12 12 12 12 12 13 13 13 13 12 12 12 12 12 12 12 12 12 12 12 12 13 13 13 13 14 14 13 14 14 14 14
7 7 7 8 8 9 10 11 11 12 12 12 12 12 12 12 12 12 12 12 12 12 12 12 12 12 12 12 12 12 12 12 13 13 13 13 13 13 13 13 13 14 14
6 6 6 6 6 7 7 8 9 10 11 11 11 11 11 11 11 11 11 12 12 11 11 11 11 11 11 11 11 12 12 12 12 12 13 13 13 13 13 13 13 13 13
6 6 5 5 5 5 5 6 6 7 7 8 9 9 9 10 10 10 10 11 11 11 11 11 11 11 11 11 11 11 11 12 12 12 12 12 12 13 13 13 13 13 13
5 5 5 5 4 4 4 4 4 4 5 5 6 7 8 8 9 9 9 9 10 10 10 10 10 10 10 10 10 10 11 11 12 12 12 12 12 12 12 13 13 12 12
4 4 4 4 4 4 4 4 3 4 4 4 5 5 6 7 7 8 9 9 9 10 10 10 10 10 10 10 10 10 10 10 11 11 12 12 12 12 12 12 12 12 12
3 3 3 2 2 3 3 3 2 2 2 3 3 3 4 5 6 7 8 8 9 9 9 9 10 10 10 9 9 9 9 9 10 10 10 10 11 11 11 12 12 12 12
2 2 1 1 1 1 1 1 1 1 1 2 2 2 3 4 5 6 7 7 8 8 9 9 9 9 9 9 9 9 9 9 9 9 9 9 10 10 10 11 11 11 11
1 0 -0 -0 -0 -0 -0 -0 0 0 0 1 1 1 2 2 4 5 5 6 7 7 8 8 9 9 9 8 8 8 8 8 9 9 9 9 9 9 9 9 10 10 10
Wind_Speed
4 9 16 16 14 13 12 11 10 8 8 9 8 7 6 6 5 5 5 5 5 4 4 4 4 3 3 4 5 6 7 8 8 8 8 8 9 9 9 9 9 8 8
8 12 16 16 15 14 12 11 10 9 8 7 7 7 7 6 6 6 6 6 7 6 6 5 5 4 3 3 4 5 6 7 7 6 6 6 8 9 9 10 9 8 8
9 14 17 17 15 14 12 11 11 10 9 8 7 6 6 6 6 5 6 7 8 8 8 7 6 5 4 4 4 5 6 7 7 6 5 4 6 8 9 9 9 9 9
11 15 16 18 16 14 13 11 11 10 10 9 8 6 5 5 5 4 5 7 9 9 9 8 5 4 4 4 4 5 7 8 7 6 5 4 6 8 9 9 9 9 9
9 15 17 18 16 14 12 11 11 10 9 9 8 7 6 6 5 5 5 5 6 7 8 7 5 4 4 4 5 6 7 8 8 6 5 5 9 11 11 10 10 10 10
8 11 14 15 14 12 10 10 10 10 10 9 8 7 7 7 6 5 5 5 5 6 6 6 6 5 5 4 5 7 8 9 8 6 4 5 12 15 14 12 11 10 10
7 7 11 12 12 11 10 9 9 10 10 9 9 8 8 8 7 6 4 5 6 6 7 7 6 6 6 5 6 7 9 9 8 7 4 6 13 16 16 14 12 10 9
8 6 8 10 11 12 11 11 10 10 10 9 9 9 8 9 9 8 7 6 6 7 7 7 6 6 6 6 6 8 9 10 9 8 5 8 14 17 16 15 13 11 9
6 5 2 3 5 8 10 11 11 10 10 10 10 10 9 8 8 9 9 9 8 8 7 6 5 5 6 6 7 8 9 11 9 7 5 8 16 17 17 16 14 12 10
8 6 3 3 3 4 7 9 9 9 10 10 9 9 9 9 9 10 9 9 9 9 9 8 6 5 6 6 6 7 9 10 9 8 5 9 17 18 17 16 15 13 11
10 7 5 4 2 5 8 9 10 11 11 11 10 10 10 10 10 10 11 12 12 11 12 11 10 9 8 8 8 9 9 9 9 8 7 10 17 18 18 17 15 14 13
13 12 9 7 6 6 4 2 5 8 9 11 10 10 11 12 11 11 13 16 15 15 14 13 13 13 11 9 10 11 9 11 10 10 10 13 18 19 18 18 17 15 15
13 16 15 12 10 9 6 3 3 5 8 10 11 11 11 10 9 9 9 11 14 14 11 11 11 10 10 9 8 9 10 11 10 11 12 15 20 20 19 19 18 17 16
18 19 17 14 13 12 11 7 5 4 4 4 7 10 8 4 4 4 4 7 7 8 7 7 5 8 9 11 10 8 9 9 10 12 13 17 21 21 19 20 20 18 18
20 20 18 18 18 14 11 10 9 7 6 7 7 6 4 3 4 4 3 4 6 7 5 4 4 7 7 6 7 7 8 9 11 12 13 18 22 22 21 21 21 20 19
17 18 18 19 18 16 14 13 10 11 12 11 9 9 7 3 2 3 4 4 4 5 6 4 6 6 5 5 7 8 8 8 10 12 14 17 23 24 23 22 22 22 21
13 15 18 16 17 17 16 14 13 15 16 12 12 14 11 7 3 3 4 5 5 6 6 5 5 4 5 5 6 6 6 7 7 10 13 14 17 22 23 23 23 24 23
12 14 15 17 16 15 12 13 14 16 16 14 17 17 16 12 7 3 4 5 5 5 4 5 5 4 5 5 5 6 5 6 8 8 10 11 13 15 19 22 24 25 25
10 10 12 13 13 12 10 10 12 14 14 16 18 17 20 19 12 4 4 5 5 5 6 6 5 5 5 5 5 5 5 5 6 7 7 9 11 13 15 19 22 24 25
10 10 10 11 11 10 8 7 8 10 11 14 14 18 23 21 19 8 6 6 5 5 6 5 6 5 5 5 5 5 5 5 5 6 7 7 8 12 14 14 15 17 21
13 13 14 15 14 12 9 8 8 9 10 10 10 18 21 22 22 14 9 7 6 6 7 6 5 5 5 3 2 3 4 5 6 6 5 5 7 9 11 13 13 13 12
16 16 17 17 16 14 9 6 4 4 5 6 6 12 19 21 21 15 15 10 7 6 7 6 5 4 4 4 3 2 3 4 3 2 3 5 6 5 8 10 11 12 12
15 16 17 17 18 16 13 7 7 5 5 7 10 13 15 21 20 17 16 14 9 7 7 7 6 7 5 4 4 4 3 5 3 3 2 1 3 4 6 7 8 10 11
13 13 14 16 17 16 13 9 9 9 7 7 8 10 15 18 18 19 17 16 11 7 7 7 7 5 6 4 3 3 3 4 3 1 2 3 2 1 3 4 6 6 9
12 12 13 15 14 14 13 11 10 9 8 9 11 13 14 15 16 18 18 16 11 8 8 8 6 6 5 5 4 3 2 1 2 2 1 2 3 3 1 4 5 5 7
12 13 14 15 13 13 13 13 12 12 14 16 16 15 15 14 15 18 19 16 12 7 6 7 7 8 6 5 4 4 4 4 3 3 2 1 0 2 2 1 4 5 6
Wind_Direction
173 174 171 168 166 164 162 161 161 157 143 142 146 156 157 161 164 162 159 158 160 164 168 165 153 139 128 121 124 133 134 123 116 113 113 116 117 112 100 90 109 103 102
163 170 172 171 170 171 171 171 168 168 162 158 163 170 176 185 189 190 195 198 195 191 192 195 191 180 174 160 150 153 152 143 139 128 115 116 122 120 114 104 106 111 105
151 171 173 172 173 175 177 176 175 175 176 178 181 182 187 199 205 210 215 215 214 208 207 208 206 202 201 190 175 179 179 171 165 153 133 128 137 132 124 116 111 110 108
159 172 173 174 174 176 179 182 184 184 187 190 190 189 194 203 210 222 238 231 219 213 214 216 212 213 216 213 204 199 197 190 184 168 156 177 181 149 135 126 118 113 111
161 174 175 173 175 178 181 186 190 193 198 202 199 200 207 212 226 240 249 233 207 204 207 206 201 208 216 215 219 217 209 203 201 190 184 207 194 165 149 136 126 118 114
171 175 173 172 173 177 184 192 197 201 208 211 212 216 222 218 223 236 234 197 176 180 185 187 192 202 211 218 226 227 222 215 213 211 218 212 180 170 156 146 138 130 123
155 165 169 174 175 178 186 197 205 209 217 216 223 222 230 230 224 226 221 196 184 188 189 189 195 203 211 220 225 227 230 228 221 224 222 195 182 170 159 155 152 145 136
135 147 167 184 184 184 190 199 208 213 221 225 234 230 234 241 228 226 228 224 209 206 204 201 205 213 220 227 229 227 227 227 227 232 224 200 196 176 166 165 164 161 155
100 99 105 213 212 207 207 209 212 216 223 229 239 239 234 247 245 239 236 229 222 216 213 211 218 229 236 241 240 236 232 229 228 228 231 205 202 184 175 173 173 174 173
57 56 20 306 272 256 247 238 228 225 228 233 242 242 231 240 249 249 244 231 224 223 218 211 215 232 242 246 249 247 241 237 234 232 231 213 203 190 182 180 180 182 183
47 43 41 31 331 270 255 243 237 236 237 238 240 236 233 235 239 242 242 234 227 220 215 211 213 223 233 241 247 250 247 237 236 238 227 217 208 197 189 185 184 187 186
19 14 15 20 20 14 1 240 241 253 256 250 242 237 235 234 235 239 243 238 228 215 210 214 221 226 230 236 245 248 241 234 229 234 229 225 214 207 197 190 187 189 187
13 14 8 7 10 16 16 21 326 296 279 263 254 249 247 245 245 249 251 243 228 217 216 228 237 235 232 236 244 247 240 234 229 232 230 226 214 213 205 195 190 191 191
21 15 11 13 12 8 5 357 346 334 316 294 271 263 253 245 243 237 227 222 214 217 221 228 234 240 237 237 239 241 240 237 233 231 231 224 213 211 208 200 195 195 196
22 15 13 17 15 9 7 0 357 349 343 328 312 293 250 224 235 235 224 217 220 223 221 221 225 238 240 240 242 238 234 231 234 231 228 223 214 210 209 205 201 201 201
19 14 11 18 13 12 12 6 358 353 346 341 335 323 311 270 235 245 240 219 214 216 219 220 226 234 242 242 247 245 240 234 234 232 224 218 213 210 210 211 208 207 206
16 15 14 15 13 12 10 5 2 357 354 349 339 330 320 305 278 246 246 241 231 224 224 229 239 244 258 261 260 259 249 234 229 226 218 209 209 212 213 213 213 213 211
18 15 12 13 11 11 9 4 2 358 356 351 343 334 323 308 288 247 239 245 246 239 229 231 235 247 258 263 264 265 261 251 236 222 210 202 203 209 216 218 215 215 216
7 5 4 4 4 3 1 2 1 0 357 351 348 344 335 322 300 261 242 247 249 242 237 237 229 221 242 256 259 258 258 256 247 232 216 206 205 207 209 218 219 218 219
355 354 354 354 354 352 351 354 359 0 357 352 349 346 342 335 321 295 261 254 250 243 242 231 227 219 223 236 254 264 260 254 248 238 228 215 208 209 207 210 217 225 226
355 354 352 349 345 343 343 349 354 355 350 346 343 341 339 337 333 319 291 261 242 234 233 223 212 214 218 204 216 281 286 264 247 241 232 221 213 207 203 206 209 214 223
355 354 352 347 338 332 325 318 317 318 316 320 321 335 337 335 328 325 308 279 244 227 224 214 195 186 203 186 176 206 294 316 302 277 239 224 224 213 208 205 204 205 207
359 356 353 346 342 335 328 322 323 319 319 341 344 340 335 331 326 319 313 293 257 220 211 206 191 177 190 202 184 172 193 234 293 321 328 270 238 215 211 202 196 197 196
355 353 349 346 343 340 338 341 342 347 340 332 330 326 327 325 323 320 315 304 269 227 205 203 192 178 165 179 185 185 189 179 189 282 338 1 9 168 168 162 162 157 162
349 348 344 342 340 342 348 350 347 343 334 329 329 326 324 322 318 317 314 309 283 242 207 192 178 173 169 168 169 163 159 146 144 160 205 348 14 15 69 126 129 132 139
346 346 345 344 344 350 355 354 349 343 338 335 332 327 324 319 315 313 314 308 294 260 221 195 178 171 170 165 164 161 161 160 172 156 169 191 200 341 2 80 126 133 137
Height
1518 1517 1517 1517 1517 1517 1518 1518 1519 1519 1520 1521 1521 1522 1522 1523 1524 1524 1525 1525 1525 1526 1526 1527 1527 1528 1529 1529 1529 1530 1530 1531 1531 1531 1532 1532 1531 1532 1532 1533 1533 1534 1534
1518 1518 1517 1517 1517 1517 1517 1518 1518 1519 1519 1520 1520 1520 1521 1522 1523 1523 1523 1523 1524 1524 1525 1526 1526 1527 1528 1528 1529 1529 1530 1530 1531 1531 1531 1532 1532 1532 1532 1533 1533 1533 1534
1519 1518 1518 1518 1518 1518 1518 1518 1518 1518 1519 1519 1519 1520 1520 1521 1521 1522 1522 1522 1523 1523 1523 1524 1525 1526 1526 1527 1527 1528 1529 1530 1530 1530 1531 1531 1531 1532 1532 1533 1533 1533 1533
1519 1519 1519 1519 1519 1519 1519 1519 1518 1518 1518 1519 1519 1519 1519 1520 1520 1521 1521 1521 1521 1522 1522 1523 1523 1524 1525 1525 1526 1526 1527 1528 1529 1529 1530 1530 1531 1531 1532 1532 1532 1533 1533
1519 1519 1520 1520 1520 1520 1520 1519 1518 1518 1518 1518 1518 1518 1518 1519 1519 1520 1520 1520 1521 1521 1521 1521 1522 1523 1524 1524 1525 1525 1526 1527 1528 1528 1529 1529 1530 1531 1532 1532 1532 1532 1533
1519 1520 1520 1521 1520 1520 1520 1519 1518 1518 1517 1517 1517 1517 1517 1517 1518 1518 1519 1519 1519 1519 1520 1520 1521 1521 1522 1523 1523 1524 1525 1526 1526 1527 1527 1528 1529 1529 1530 1531 1532 1532 1532
1520 1520 1520 1520 1520 1520 1519 1519 1519 1518 1517 1516 1516 1516 1516 1516 1516 1517 1517 1518 1518 1518 1518 1518 1519 1519 1520 1521 1521 1522 1523 1524 1525 1526 1526 1527 1528 1528 1529 1530 1531 1531 1532
1520 1520 1520 1520 1520 1519 1519 1518 1518 1517 1517 1516 1515 1515 1514 1514 1514 1514 1515 1516 1516 1516 1516 1516 1517 1517 1518 1519 1520 1520 1521 1522 1523 1524 1525 1525 1526 1527 1528 1529 1530 1530 1531
1522 1521 1521 1520 1519 1519 1518 1517 1517 1516 1515 1515 1514 1513 1513 1513 1513 1513 1513 1513 1514 1514 1514 1514 1515 1515 1516 1517 1517 1518 1519 1520 1521 1522 1523 1523 1524 1526 1527 1527 1528 1529 1529
1523 1522 1521 1520 1519 1518 1517 1516 1516 1515 1514 1513 1512 1512 1511 1511 1511 1511 1511 1511 1511 1512 1512 1512 1512 1513 1513 1514 1515 1516 1516 1517 1518 1519 1520 1521 1522 1524 1525 1526 1527 1527 1528
1524 1523 1522 1520 1518 1517 1515 1515 1514 1513 1512 1511 1510 1510 1510 1509 1509 1509 1509 1509 1509 1509 1509 1509 1509 1510 1510 1511 1512 1512 1513 1514 1515 1516 1517 1519 1520 1521 1523 1524 1525 1526 1526
1525 1524 1523 1521 1519 1516 1514 1514 1513 1512 1511 1510 1509 1508 1508 1507 1507 1507 1507 1507 1507 1507 1507 1506 1506 1506 1506 1507 1508 1509 1509 1510 1511 1513 1514 1516 1517 1518 1520 1521 1523 1523 1524
1525 1524 1522 1520 1518 1515 1514 1513 1512 1510 1509 1508 1507 1506 1506 1505 1505 1504 1504 1505 1504 1504 1504 1503 1503 1502 1502 1502 1502 1503 1504 1506 1507 1508 1510 1512 1513 1515 1517 1518 1520 1521 1522
1525 1524 1521 1519 1517 1515 1514 1512 1511 1510 1508 1507 1506 1504 1504 1503 1502 1502 1501 1501 1501 1500 1500 1500 1499 1499 1498 1498 1497 1498 1499 1500 1502 1504 1505 1507 1509 1511 1513 1514 1516 1518 1519
1526 1524 1521 1519 1516 1515 1513 1511 1510 1508 1507 1506 1505 1503 1502 1501 1500 1499 1498 1498 1497 1497 1496 1496 1495 1494 1494 1494 1493 1493 1494 1495 1497 1499 1500 1502 1504 1507 1509 1510 1511 1513 1515
1528 1525 1522 1519 1517 1514 1512 1510 1508 1506 1505 1504 1503 1502 1501 1499 1498 1496 1495 1494 1493 1493 1492 1492 1491 1490 1490 1489 1489 1489 1489 1490 1491 1493 1495 1497 1500 1502 1504 1506 1507 1509 1511
1530 1526 1522 1519 1517 1514 1511 1509 1507 1505 1503 1501 1500 1499 1498 1496 1495 1493 1491 1490 1489 1488 1487 1487 1486 1485 1485 1484 1484 1484 1484 1485 1486 1487 1489 1492 1494 1496 1498 1500 1502 1504 1506
1530 1526 1523 1520 1516 1513 1510 1507 1505 1503 1501 1499 1497 1495 1493 1492 1490 1488 1487 1486 1485 1484 1482 1481 1480 1480 1479 1479 1478 1479 1479 1479 1480 1481 1483 1485 1488 1490 1492 1494 1496 1498 1501
1531 1527 1523 1519 1515 1511 1507 1504 1502 1500 1497 1495 1493 1491 1489 1486 1485 1483 1482 1480 1479 1478 1477 1476 1475 1475 1474 1473 1473 1473 1473 1474 1474 1476 1477 1479 1481 1483 1486 1488 1491 1493 1495
1533 1528 1523 1518 1514 1509 1504 1500 1497 1495 1492 1490 1488 1485 1483 1481 1479 1477 1476 1475 1473 1472 1470 1470 1469 1469 1468 1468 1467 1467 1468 1468 1468 1469 1471 1473 1474 1476 1479 1481 1484 1487 1489
1532 1527 1522 1517 1512 1507 1502 1496 1492 1489 1487 1484 1482 1479 1477 1475 1472 1469 1468 1468 1467 1466 1464 1464 1463 1463 1463 1463 1462 1462 1462 1462 1462 1463 1464 1466 1468 1470 1472 1474 1477 1480 1483
1533 1528 1522 1517 1512 1507 1502 1496 1492 1488 1485 1481 1477 1473 1471 1467 1465 1462 1460 1459 1459 1459 1458 1457 1457 1457 1457 1458 1457 1457 1456 1457 1457 1458 1458 1460 1462 1463 1465 1468 1471 1474 1477
1533 1528 1522 1516 1511 1505 1499 1493 1488 1483 1478 1474 1469 1466 1463 1460 1457 1455 1453 1451 1450 1451 1450 1450 1450 1450 1451 1452 1452 1453 1453 1452 1452 1453 1453 1454 1456 1457 1459 1462 1464 1467 1471
1532 1527 1520 1513 1507 1502 1496 1491 1485 1480 1474 1469 1466 1461 1458 1454 1450 1447 1445 1443 1442 1443 1443 1443 1443 1444 1445 1446 1447 1448 1449 1449 1450 1449 1449 1450 1451 1453 1454 1456 1459 1462 1465
1530 1523 1516 1509 1504 1498 1493 1488 1483 1477 1472 1466 1461 1456 1451 1447 1443 1440 1437 1435 1434 1435 1436 1436 1436 1437 1438 1440 1441 1442 1444 1445 1445 1446 1446 1447 1448 1449 1451 1452 1454 1457 1460
1528 1520 1513 1506 1500 1495 1489 1484 1478 1472 1466 1460 1455 1449 1444 1439 1436 1432 1430 1428 1427 1427 1428 1429 1429 1430 1432 1434 1435 1437 1439 1440 1441 1442 1444 1445 1446 1448 1449 1451 1453 1455 1457